Location: 22
(39.7117°N, 89.5929°W)
Time: 05:29:00
(UTC-05:00)

Vanguard 1 Rocket - Pass Details

Date: 09 February 2023
Orbit: 652 x 4223 km, 34.3° (Epoch: 26 March)

Event Time Altitude Azimuth Distance (km) Brightness Sun altitude
Rises 18:52:09 0° 276° (W) 7,028 13.6 -16.7°
Reaches altitude 10° 18:58:47 10° 261° (W) 6,558 13.0 -18.0°
Maximum altitude 19:11:53 19° 225° (SW) 6,478 12.2 -20.5°
Drops below altitude 10° 19:26:47 10° 189° (S) 7,383 12.1 -23.4°
Sets 19:35:32 0° 174° (S) 8,165 12.2 -25.1°
